This is the latest recevied weather packets stored in our database for station/object W6ORV. If no packets are shown the sender has not sent any weather packets the latest 10 day(s).
| Time | Temp. | Humidity | Pressure | Rain* | Wind** | Luminosity | Snow |
|---|---|---|---|---|---|---|---|
| 1777515439 | 20.56° C | 44% | 4298.7 hPa | 0 mm | - | 23 W/m² | - |
| 1777515135 | 20.56° C | 44% | 4299 hPa | 0 mm | - | 28 W/m² | - |
| 1777514832 | 20.56° C | 44% | 4298.7 hPa | 0 mm | - | 32 W/m² | - |
| 1777514529 | 21.11° C | 43% | 4298.4 hPa | 0 mm | - | 36 W/m² | - |
| 1777514227 | 21.67° C | 42% | 4298.7 hPa | 0 mm | - | 42 W/m² | - |
| 1777513922 | 21.67° C | 41% | 4298.6 hPa | 0 mm | - | 36 W/m² | - |
| 1777513620 | 21.67° C | 42% | 4298.5 hPa | 0 mm | - | 40 W/m² | - |
| 1777513316 | 22.22° C | 40% | 4298.5 hPa | 0 mm | - | 40 W/m² | - |
| 1777513012 | 22.22° C | 41% | 4298.6 hPa | 0 mm | - | 42 W/m² | - |
| 1777512709 | 22.22° C | 41% | 4298.5 hPa | 0 mm | - | 44 W/m² | - |
| 1777512406 | 22.22° C | 40% | 4298.6 hPa | 0 mm | - | 57 W/m² | - |
| 1777512103 | 22.78° C | 40% | 4298.5 hPa | 0 mm | - | 48 W/m² | - |
| 1777511801 | 22.78° C | 39% | 4298.4 hPa | 0 mm | - | 142 W/m² | - |
| 1777511497 | 22.22° C | 40% | 4298.3 hPa | 0 mm | - | 174 W/m² | - |
| 1777511194 | 22.78° C | 39% | 4298.4 hPa | 0 mm | - | 189 W/m² | - |
| 1777510890 | 23.33° C | 39% | 4298.3 hPa | 0 mm | - | 197 W/m² | - |
| 1777510587 | 23.89° C | 39% | 4298.4 hPa | 0 mm | - | 219 W/m² | - |
| 1777510283 | 23.89° C | 40% | 4298.2 hPa | 0 mm | - | 235 W/m² | - |
| 1777509980 | 24.44° C | 39% | 4298.3 hPa | 0 mm | - | 245 W/m² | - |
| 1777509675 | 25° C | 38% | 4298.3 hPa | 0 mm | - | 266 W/m² | - |
| 1777509372 | 24.44° C | 39% | 4298.1 hPa | 0 mm | - | 285 W/m² | - |
| 1777509070 | 24.44° C | 38% | 4298.2 hPa | 0 mm | - | 291 W/m² | - |
| 1777508767 | 25° C | 38% | 4298.3 hPa | 0 mm | - | 304 W/m² | - |
| 1777508464 | 25° C | 38% | 4298.1 hPa | 0 mm | - | 344 W/m² | - |
| 1777508161 | 25° C | 38% | 4298.2 hPa | 0 mm | - | 367 W/m² | - |
* Rain latest hour (hover to see other rain measurements)
** Current wind speed in m/s (hover to see current wind gust speed)